Location: Home
(42.5358°N, 72.7383°W)
Time: 12:09:35
(UTC-04:00)

Tiros 1 - All Passes

Search period start: 25 April 2025 00:00
Search period end: 05 May 2025 00:00
Orbit: 620 x 652 km, 48.4° (Epoch: 24 April)

Date Brightness Start Highest point End Pass type
(mag) Time Alt. Az. Time Alt. Az. Time Alt. Az.
25 Apr - 01:50:07 10° SSE 01:51:51 12° SE 01:53:36 10° ESE visible
25 Apr - 03:28:25 10° SW 03:33:02 57° SSE 03:37:42 10° ENE visible
25 Apr - 05:10:29 10° W 05:15:06 51° NNW 05:19:45 10° ENE visible
25 Apr - 06:53:10 10° WNW 06:57:41 41° N 07:02:12 10° ENE daylight
25 Apr - 08:35:18 10° WNW 08:40:04 80° NNE 08:44:49 10° ESE daylight
25 Apr - 10:17:45 10° W 10:21:42 26° SW 10:25:37 10° SSE daylight
26 Apr - 02:09:57 10° SSW 02:13:45 25° SE 02:17:37 10° E visible
26 Apr - 03:50:37 10° WSW 03:55:21 83° NNW 04:00:08 10° ENE visible
26 Apr - 05:33:12 10° WNW 05:37:43 42° N 05:42:14 10° ENE daylight
26 Apr - 07:15:40 10° WNW 07:20:18 50° NNE 07:24:56 10° E daylight
26 Apr - 08:57:43 10° WNW 09:02:24 60° SSW 09:07:03 10° SE daylight
26 Apr - 10:41:33 10° WSW 10:43:37 13° SW 10:45:42 10° SSW daylight
27 Apr - 02:31:20 10° SW 02:35:51 48° SE 02:40:25 10° ENE visible
27 Apr - 04:13:10 10° W 04:17:49 55° NNW 04:22:30 10° ENE visible
27 Apr - 05:55:53 10° WNW 06:00:22 40° N 06:04:52 10° ENE daylight
27 Apr - 07:38:04 10° WNW 07:42:49 71° NNE 07:47:33 10° ESE daylight
27 Apr - 09:20:21 10° WNW 09:24:33 32° SW 09:28:43 10° SSE daylight
28 Apr - 01:13:09 10° S 01:16:37 21° SE 01:20:08 10° E visible
28 Apr - 02:53:23 10° WSW 02:58:06 86° SSE 03:02:52 10° ENE visible
28 Apr - 04:35:52 10° W 04:40:24 43° N 04:44:57 10° ENE visible
28 Apr - 06:18:24 10° WNW 06:23:00 47° NNE 06:27:35 10° E daylight
28 Apr - 08:00:27 10° WNW 08:05:11 71° SSW 08:09:53 10° SE daylight
28 Apr - 09:43:41 10° W 09:46:31 16° SW 09:49:20 10° S daylight
29 Apr - 01:34:17 10° SSW 01:38:39 40° SE 01:43:05 10° ENE visible
29 Apr - 03:15:51 10° W 03:20:31 61° NNW 03:25:14 10° ENE visible
29 Apr - 04:58:34 10° WNW 05:03:02 40° N 05:07:32 10° ENE visible
29 Apr - 06:40:49 10° WNW 06:45:33 64° NNE 06:50:15 10° ESE daylight
29 Apr - 08:22:59 10° WNW 08:27:22 38° SW 08:31:44 10° SSE daylight
30 Apr - 00:16:29 10° S 00:19:30 17° SE 00:22:31 10° E night (unlit)
30 Apr - 01:56:11 10° SW 02:00:51 75° SSE 02:05:35 10° ENE visible
30 Apr - 03:38:32 10° W 03:43:04 45° N 03:47:39 10° ENE visible
30 Apr - 05:21:07 10° WNW 05:25:40 44° N 05:30:14 10° E daylight
30 Apr - 07:03:10 10° WNW 07:07:56 82° SSW 07:12:40 10° ESE daylight
30 Apr - 08:46:01 10° W 08:49:23 19° SW 08:52:43 10° S daylight
01 May - 00:37:16 10° SSW 00:41:28 34° SE 00:45:43 10° ENE visible
01 May - 02:18:33 10° WSW 02:23:13 68° NNW 02:27:58 10° ENE visible
01 May - 04:01:13 10° WNW 04:05:42 40° N 04:10:11 10° ENE visible
01 May - 05:43:32 10° WNW 05:48:14 58° NNE 05:52:55 10° E daylight
01 May - 07:25:38 10° WNW 07:30:09 45° SW 07:34:40 10° SE daylight
01 May - 23:20:01 10° SSE 23:22:22 14° SE 23:24:43 10° E night (unlit)
02 May - 00:58:59 10° SW 01:03:37 64° SSE 01:08:18 10° ENE visible
02 May - 02:41:10 10° W 02:45:44 48° NNW 02:50:21 10° ENE visible
02 May - 04:23:49 10° WNW 04:28:20 42° N 04:32:51 10° E visible
02 May - 06:05:53 10° WNW 06:10:40 87° NNE 06:15:25 10° ESE daylight
02 May - 07:48:28 10° W 07:52:13 23° SW 07:55:57 10° S daylight
02 May - 23:40:19 10° SSW 23:44:17 28° SE 23:48:17 10° E night (unlit)
03 May - 01:21:15 10° WSW 01:25:55 76° NNW 01:30:40 10° ENE visible
03 May - 03:03:52 10° WNW 03:08:21 41° N 03:12:50 10° ENE visible
03 May - 04:46:16 10° WNW 04:50:54 53° NNE 04:55:33 10° E visible
03 May - 06:28:18 10° WNW 06:32:56 54° SW 06:37:32 10° SE daylight
03 May - 08:12:52 10° WSW 08:14:05 11° SW 08:15:19 10° SW daylight
03 May - 22:24:03 10° SE 22:25:14 11° SE 22:26:25 10° ESE night (unlit)
04 May - 00:01:50 10° SW 00:06:22 54° SE 00:10:58 10° ENE visible
04 May - 01:43:49 10° W 01:48:24 52° NNW 01:53:02 10° ENE visible
04 May - 03:26:29 10° WNW 03:30:58 41° N 03:35:28 10° ENE visible
04 May - 05:08:37 10° WNW 05:13:22 77° NNE 05:18:07 10° ESE visible
04 May - 06:50:59 10° W 06:55:01 28° SW 06:59:03 10° SSE daylight
04 May - 22:43:25 10° S 22:47:05 23° SE 22:50:48 10° E night (unlit)
